Regional Weather Roundup
Issued by NWS Newport/Morehead, NC

Current Version | Previous Version | Text Only | Print | Product List | Glossary Off
Versions: 1 2 3 4 5 6 7 8 9 10 11 12 13 14 15 16 17 18 19 20 21 22 23 24 25 26 27 28 29 30 31 32 33 34 35 36 37 38 39 40 41 42 43 44 45 46 47 48 49 50
000 ASUS42 KMHX 210125 RWRMHX WEATHER ROUNDUP FOR EASTERN NORTH CAROLINA NATIONAL WEATHER SERVICE NEWPORT/MOREHEAD CITY NC 900 PM EDT WED SEP 20 2017 NOTE: "FAIR" INDICATES FEW OR NO CLOUDS BELOW 12,000 FEET WITH NO SIGNIFICANT WEATHER AND/OR OBSTRUCTIONS TO VISIBILITY NCZ015>017-031-032-045>047-102-103-210200- NORTH COAST CITY SKY/WX TMP DP RH WIND PRES REMARKS EDENTON CLEAR 74 71 89 CALM 29.97R ELIZABETH CITY CLEAR 71 68 90 CALM 29.97R KITTY HAWK CLEAR 72 67 84 CALM 29.95S HAZE MANTEO CLEAR 70 66 87 CALM 29.97R $$ NCZ045>047-081-094-103-104-210200- CENTRAL COAST CITY SKY/WX TMP DP RH WIND PRES REMARKS FRISCO CLEAR 77 75 93 SW3 29.97R $$ NCZ095-097-098-100-101-210200- SOUTHERN COAST CITY SKY/WX TMP DP RH WIND PRES REMARKS BEAUFORT CLEAR 78 75 90 SW8 29.98R CEDAR ISLAND NOT AVBL JACKSONVILLE CLEAR 76 73 91 SW5 29.98R PINEY ISLAND N/A N/A N/A N/A SW9 29.97R WILMINGTON CLEAR 78 72 81 SW6 29.99R $$ NCZ011>013-027>030-043-044-078>080-089-090>093-098-210200- COASTAL PLAIN CITY SKY/WX TMP DP RH WIND PRES REMARKS AHOSKIE N/A 70 70 100 CALM 29.97R CLINTON CLOUDY 74 69 82 CALM 29.99S ELIZABETHTOWN NOT AVBL GOLDSBORO PTCLDY 71 71 100 CALM 29.96R GREENVILLE CLEAR 73 73 100 CALM 30.00R HAVELOCK MOCLDY 78 72 81 SW8 29.99R KENANSVILLE CLOUDY 72 68 88 CALM 29.98S KINSTON CLEAR 70 68 94 CALM 29.98R NEW BERN PTCLDY 77 72 84 CALM 29.98R RICHLANDS CLEAR 74 70 87 CALM 29.98R ROCKY MOUNT CLEAR 72 72 100 CALM 29.98R WASHINGTON PTCLDY 75 72 88 CALM 29.98R WHITEVILLE MOCLDY 79 71 77 CALM 30.00R $$ AMZ130-135-150-152-154-156-158-170-250-252-270-ANZ085-086-088-633-658-670-210200- MARINE OBSERVATIONS STATION/POSITION TIME TEMP WIND PRES WAVE SWELL AIR SEA DIR/SP/G HT/PER HT/PER (UTC) (F) (DEG/KT/KT) (MB) (FT/S) (FT/S) CHESAPEAKE LIGHT NOT AVBL 64 E VA BEACH 0050 71 70 270/ 2/ 4 1014.6 6/11 7/11 DUCK 0100 78 75 170/ 2/ 2 1014.3 2 E DUCK 0100 75 N/A 5/10 2/11 OREGON INLET 0100 75 77 110/ 2/ 2 1014.6 13E OREGON INLT 0048 75 N/A 5/10 5/10 HATTERAS CG 0100 76 77 250/ 4/ 5 1014.9 DIAMOND BUOY 0050 76 76 220/ 4/ 6 1014.6 5/10 5/10 CAPE LOOKOUT 0100 78 220/ 7/ 9 1014.8 BEAUFORT LAB 0100 78 76 240/ 3/ 7 1014.5 30 SE NEW RVR IN 0108 80 240/ 10/ 16 1015.1 30 SE NEW RVR IN NOT AVBL 27 SE WRIGHTSVLE 0108 80 80 210/ 10/ 14 1015.3 5 SE WRIGHTSVLE 0108 79 79 240/ 10/ 16 1015.1 225 S CAPE HAT 0050 80 80 CALM / 2 1016.2 6/11 7/11 41 SE CHARLESTON 0100 81 82 190/ 8/ 10 1015.4 $$

USA.gov is the U.S. government's official web portal to all federal, state and local government web resources and services.